Location: Fort Wayne
(41.1310°N, 85.1290°W)
Time: 15:18:56
(UTC-05:00)

Cosmos 1980 - Visible Passes

Search period start: 04 December 2016 00:00
Search period end: 14 December 2016 00:00
Orbit: 838 x 849 km, 71.0° (Epoch: 03 December)

Date Brightness Start Highest point End Pass type
(mag) Time Alt. Az. Time Alt. Az. Time Alt. Az.
04 Dec 5.8 04:43:46 18° NNE 04:43:46 18° NNE 04:45:05 10° NNE visible
04 Dec 5.5 06:25:39 13° NNW 06:25:39 13° NNW 06:27:22 10° NNW visible
05 Dec 6.2 04:30:09 12° NNE 04:30:09 12° NNE 04:30:33 10° NNE visible
05 Dec 5.7 06:12:02 12° NNW 06:12:02 12° NNW 06:12:56 10° NNW visible
06 Dec 5.8 05:58:17 11° NNW 05:58:17 11° NNW 05:58:29 10° NNW visible
